User: anonymous   Login
Location: Unspecified
(0.0000°N, 0.0000°E)
Time: 06:18:31
(UTC+00:00)
Language:

NNS O-2 - Orbit

View from above orbital plane
View from above orbital plane
View from above satellite
View from above satellite

Ground track
Ground track

The orbit data is extracted from the following two-line orbital elements,

1   965U 64083D   17119.84034105 +.00000061 +00000-0 +72447-4 0  9990
2   965 090.0132 191.6229 0038624 310.0899 185.1510 13.56700551591447
Epoch (UTC): 29 April 2017 20:10:05
Eccentricity: 0.0038624
inclination: 90.0132°
perigee height: 1019 km
apogee height: 1076 km
right ascension of ascending node: 191.6229°
argument of perigee: 310.0899°
revolutions per day: 13.56700551
mean anomaly at epoch: 185.1510°
orbit number at epoch: 59144

The dashed part of the orbit path shows where the satellite is in the earth's shadow,  

DLR